Terminal Aerodrome Forecast
Issued by NWS Corpus Christi, TX

Home | Current Version | Previous Version | Text Only | Print | Product List | Glossary On
Versions: 1 2 3 4 5 6 7 8 9 10 11 12 13 14 15
000
FTUS44 KCRP 070539
TAFCRP
TAF
KCRP 070539Z 0706/0806 16013KT P6SM BKN015
     FM071000 16008KT P6SM SCT009 BKN012 WS020/18035KT
     FM071500 16015G25KT P6SM SCT025 BKN035
      TEMPO 0715/0717 BKN025
     FM072100 13020G30KT P6SM SCT035 BKN250
     FM080400 15015KT P6SM SCT015
      TEMPO 0804/0806 BKN015=

USA.gov is the U.S. government's official web portal to all federal, state and local government web resources and services.